Location: Acequia del Cap
(41.7000°N, 0.6167°E)
Time: 16:15:09
(UTC+00:00)

Cosmos 2026 Rocket - Pass Details

Date: 07 August 2020
Orbit: 940 x 1000 km, 82.9° (Epoch: 22 September)

Event Time Altitude Azimuth Distance (km) Brightness Sun altitude
Rises 01:42:02 0° 351° (N) 3,614 7.8 -27.7°
Reaches altitude 10° 01:44:31 10° 350° (N) 2,668 6.9 -27.4°
Maximum altitude 01:50:35 78° 265° (W) 974 3.8 -26.9°
Enters shadow 01:51:08 72° 216° (SW) 999 3.8 -26.9°
